Tracking 19628 objects as of 26-May-2019
HD Live streaming from Space Station
objects crossing your sky now
Watch Starlink satellites crossing your sky!

HINCUBE

Track HINCUBE now!
10-day predictions
HINCUBE is classified as:


NORAD ID: 39445
Int'l Code: 2013-066AF
Perigee: 589.0 km
Apogee: 672.7 km
Inclination: 97.6 °
Period: 97.2 minutes
Semi major axis: 7001 km
RCS: Unknown
Launch date: November 21, 2013
Source: Norway (NOR)
Launch site: Orenburg, Russia (OREN)

Uplink (MHz):
Downlink (MHz): 437.305
Beacon (MHz):
Mode:
Call sign:
Status: Inactive

aabbcc
Your satellite tracking list
Your tracking list is empty




NASA's NSSDC Master Catalog

Two Line Element Set (TLE):
1 39445U 13066AF  19146.47400365  .00000187  00000-0  29350-4 0  9990
2 39445  97.5628 163.1032 0059761 104.8724 255.9118 14.81772674296043
Source of the keplerian elements: AFSPC